This is the latest recevied weather packets stored in our database for station/object KA0EGE. If no packets are shown the sender has not sent any weather packets the latest 10 day(s).
| Time | Temp. | Humidity | Pressure | Rain* | Wind** | Luminosity | Snow |
|---|---|---|---|---|---|---|---|
| 1777598352 | 22.78° C | 82% | 1014.3 hPa | 0 mm | - | 0 W/m² | - |
| 1777598050 | 22.78° C | 81% | 1014.3 hPa | 0 mm | - | 0 W/m² | - |
| 1777597749 | 22.78° C | 81% | 1014.4 hPa | 0 mm | - | 0 W/m² | - |
| 1777597445 | 22.78° C | 81% | 1014.2 hPa | 0 mm | - | 0 W/m² | - |
| 1777597140 | 22.78° C | 81% | 1014.1 hPa | 0 mm | - | 0 W/m² | - |
| 1777596837 | 22.78° C | 80% | 1014 hPa | 0 mm | - | 0 W/m² | - |
| 1777596532 | 23.33° C | 79% | 1013.9 hPa | 0 mm | - | 0 W/m² | - |
| 1777596230 | 23.89° C | 79% | 1013.8 hPa | 0 mm | - | 0 W/m² | - |
| 1777595927 | 23.89° C | 76% | 1013.9 hPa | 0 mm | - | 0 W/m² | - |
| 1777595622 | 24.44° C | 76% | 1013.9 hPa | 0 mm | - | 0 W/m² | - |
| 1777595318 | 24.44° C | 75% | 1013.7 hPa | 0 mm | - | 1 W/m² | - |
| 1777595014 | 24.44° C | 74% | 1013.7 hPa | 0 mm | - | 1 W/m² | - |
| 1777594711 | 24.44° C | 74% | 1013.9 hPa | 0 mm | - | 2 W/m² | - |
| 1777594408 | 24.44° C | 73% | 1013.8 hPa | 0 mm | - | 4 W/m² | - |
| 1777594103 | 24.44° C | 74% | 1013.7 hPa | 0 mm | - | 7 W/m² | - |
| 1777593799 | 25° C | 73% | 1013.5 hPa | 0 mm | - | 11 W/m² | - |
| 1777593495 | 25° C | 73% | 1013.6 hPa | 0 mm | - | 20 W/m² | - |
| 1777593189 | 25° C | 73% | 1013.5 hPa | 0 mm | - | 25 W/m² | - |
| 1777592888 | 25° C | 72% | 1013.4 hPa | 0 mm | - | 34 W/m² | - |
| 1777592585 | 25° C | 72% | 1013.4 hPa | 0 mm | - | 40 W/m² | - |
| 1777592281 | 25° C | 72% | 1013.2 hPa | 0 mm | - | 42 W/m² | - |
| 1777591976 | 25° C | 72% | 1013.2 hPa | 0 mm | - | 46 W/m² | - |
| 1777591672 | 25° C | 72% | 1013.3 hPa | 0 mm | - | 53 W/m² | - |
| 1777591369 | 25° C | 71% | 1013.1 hPa | 0 mm | - | 59 W/m² | - |
| 1777591065 | 25° C | 71% | 1013.3 hPa | 0 mm | - | 69 W/m² | - |
* Rain latest hour (hover to see other rain measurements)
** Current wind speed in m/s (hover to see current wind gust speed)